Regional Weather Roundup
Issued by NWS Albany, NY

Home | Current Version | Previous Version | Graphics & Text | Print | Product List | Glossary Off
Versions: 1 2 3 4 5 6 7 8 9 10 11 12 13 14 15 16 17 18 19 20 21 22 23 24 25 26 27 28 29 30 31 32 33 34 35 36 37 38 39 40 41 42 43 44 45 46 47 48 49 50

084
ASUS41 KALY 290210
RWRALY

NEW YORK STATE HOURLY WEATHER ROUNDUP
NATIONAL WEATHER SERVICE ALBANY NY
1000 PM EDT SUN MAY 28 2017

NOTE: "FAIR" INDICATES FEW OR NO CLOUDS BELOW 12,000 FEET WITH NO
SIGNIFICANT WEATHER AND/OR NO OBSTRUCTIONS TO VISIBILITY.

NYZ032-033-038>043-046>054-057>066-NYZ062>081-082-084-290300-
EAST


CITY           SKY/WX    TMP DP  RH WIND       PRES   REMARKS
ALBANY         CLOUDY    66  54  65 S14G24    29.90R
GLENS FALLS    PTCLDY    65  56  72 S6        29.89S
POUGHKEEPSIE   CLOUDY    61  48  62 SE5       29.93S
NEWBURGH       MOCLDY    61  50  67 S7        29.95R
MONTGOMERY     CLOUDY    61  48  62 S5        29.93R
WHITE PLAINS   CLOUDY    59  49  69 E5        29.94F
ISLIP          CLOUDY    58  53  84 SE10      29.95F
NEW YORK CITY  CLOUDY    63  50  62 SE8       29.93F
CENTRAL PARK   CLOUDY    62  50  64 VRB5      29.96F
$$

NYZ005>009-017-018-044>046-055-056-290300-
CENTRAL


CITY           SKY/WX    TMP DP  RH WIND       PRES   REMARKS
FULTON         CLOUDY    72  55  55 VRB3      29.78R
SYRACUSE       CLOUDY    66  57  72 SE7       29.78S
ROME           CLOUDY    69  57  65 E8        29.84R
ELMIRA         LGT RAIN  68  58  70 S12       29.81S
BINGHAMTON     CLOUDY    63  55  75 S8        29.86R
MONTICELLO     PTCLDY    59  54  82 SE9       29.94S
$$

NYZ026>034-041>043-087-290300-
NORTH


CITY           SKY/WX    TMP DP  RH WIND       PRES   REMARKS
WATERTOWN      CLOUDY    68  58  70 SE5       29.77F
FORT DRUM      NOT AVBL
OGDENSBURG     MOCLDY    69  56  64 CALM      29.80S
MASSENA        CLOUDY    68  55  63 SE7       29.82R
SARANAC LAKE   CLEAR     54  51  90 CALM      29.87R
PLATTSBURGH    PTCLDY    63  53  70 CALM      29.86R
$$

NYZ001>004-010>016-019>021-085-290300-
WEST


CITY           SKY/WX    TMP DP  RH WIND       PRES   REMARKS
NIAGARA FALLS  CLOUDY    71  60  68 S12       29.70S
BUFFALO        CLOUDY    68  60  75 S7        29.72S
DUNKIRK        CLOUDY    66  58  75 S20G26    29.72R
JAMESTOWN      CLOUDY    61  55  82 S13G18    29.80R THUNDER
WELLSVILLE     CLOUDY    62  55  77 VRB5      29.80R
ROCHESTER      CLOUDY    70  60  70 S8        29.73F
PENN YAN       CLOUDY    68  57  68 S8        29.79S
$$

             KEY
       WCI = WIND CHILL INDEX
       VSB = VISIBILITY
       HX  = HEAT INDEX
$$




USA.gov is the U.S. government's official web portal to all federal, state and local government web resources and services.